Location: Harwich
(41.7160°N, 69.9939°W)
Time: 11:45:46
(UTC+02:00)

A-11 Canister half - Pass Details

Date: 06 December 2023
Orbit: 1524 x 1684 km, 47.3° (Epoch: 02 October)

Event Time Altitude Azimuth Distance (km) Brightness Sun altitude
Rises 22:33:47 0° 202° (SSW) 4,893 12.5 -4.8°
Reaches altitude 10° 22:37:16 10° 193° (SSW) 3,921 11.7 -5.4°
Maximum altitude 22:46:05 36° 132° (SE) 2,462 9.9 -6.9°
Drops below altitude 10° 22:54:53 10° 72° (ENE) 3,940 10.5 -8.4°
Enters shadow 22:55:04 - 71° (ENE) 3,989 10.5 -8.5°
